Location: Perryvale
(54.4667°N, 113.3833°W)
Time: 00:19:15
(UTC+00:00)

SR - Pass Details

Date: 20 May 2024
Orbit: 580 x 858 km, 66.7° (Epoch: 13 June)

Event Time Altitude Azimuth Distance (km) Brightness Sun altitude
Rises 09:12:04 0° 318° (NW) 2,947 ? -12.3°
Reaches altitude 10° 09:14:27 10° 323° (NW) 1,999 ? -12.1°
Maximum altitude 09:18:50 55° 41° (NE) 728 ? -11.9°
Drops below altitude 10° 09:23:01 10° 120° (ESE) 1,905 ? -11.6°
Sets 09:25:15 0° 125° (SE) 2,794 ? -11.4°
